Location: *
(58.7167°N, 26.1833°E)
Time: 19:57:48
(UTC+00:00)

CZ-2C R/B - Pass Details

Date: 25 August 2019
Orbit: 785 x 870 km, 98.3° (Epoch: 14 October)

Event Time Altitude Azimuth Distance (km) Brightness Sun altitude
Rises 21:10:30 0° 15° (NNE) 3,314 6.8 -19.3°
Reaches altitude 10° 21:13:02 10° 5° (N) 2,390 6.1 -19.4°
Maximum altitude 21:17:36 31° 305° (NW) 1,406 4.3 -19.6°
Drops below altitude 10° 21:22:13 10° 246° (WSW) 2,422 5.0 -19.8°
Sets 21:24:48 0° 236° (SW) 3,366 5.6 -19.8°
